Tracking 18780 objects as of 29-July-2017
HD Live streaming from Space Station
objects crossing your sky now
MAYAK may become the brightest orbital object in the night sky!
Where is MAYAK now?
How to spot MAYAK

OPS 3367 B

Track OPS 3367 B now!
10-day predictions
OPS 3367 B is classified as:


NORAD ID: 735
Int'l Code: 1964-002C
Perigee: 794.9 km
Apogee: 817.9 km
Inclination: 99.0 °
Period: 100.9 minutes
Semi major axis: 7177 km
RCS: 0.3381 m2 (medium)
Launch date: January 19, 1964
Source: United States (US)
Launch site: AIR FORCE WESTERN TEST RANGE (AFWTR)
Your satellite tracking list
Your tracking list is empty





NASA's NSSDC Master Catalog

Two Line Element Set (TLE):
1   735U 64002C   17209.88413372 -.00000007 +00000-0 +16392-4 0  9995
2   735 099.0009 326.3094 0016006 321.9926 038.0124 14.27759309783616
Source of the keplerian elements: AFSPC